Location: Unspecified
(34.4950°S, 58.5160°W)
Time: 11:28:33
(UTC+00:00)

Cosmos 1655 Rocket - Visible Passes

Search period start: 30 June 2022 00:00
Search period end: 10 July 2022 00:00
Orbit: 969 x 1007 km, 82.9° (Epoch: 29 June)

Date Brightness Start Highest point End Pass type
(mag) Time Alt. Az. Time Alt. Az. Time Alt. Az.
30 Jun 5.5 00:00:20 10° NNW 00:03:16 28° NNW 00:03:16 28° NNW visible
30 Jun 6.7 09:19:10 10° SE 09:22:08 13° ESE 09:25:04 10° E visible
30 Jun 4.8 22:44:35 10° NNE 22:48:35 32° ENE 22:48:35 32° ENE visible
01 Jul 6.0 00:30:39 10° NW 00:33:36 22° WNW 00:33:36 22° WNW visible
01 Jul 6.0 09:46:27 10° SSE 09:51:50 28° ESE 09:57:07 10° NE visible
01 Jul 3.9 23:13:03 10° N 23:19:00 74° NE 23:19:00 74° NE visible
02 Jul 6.7 01:02:39 10° W 01:04:03 12° W 01:04:03 12° W visible
02 Jul 4.8 10:15:00 10° S 10:21:17 56° E 10:27:25 10° NNE visible
02 Jul 5.2 21:59:13 10° NE 22:03:35 20° E 22:04:30 19° ESE visible
02 Jul 4.6 23:42:26 10° NNW 23:48:40 54° W 23:49:32 50° SW visible
03 Jul 6.7 09:01:00 10° SE 09:04:14 14° ESE 09:07:25 10° E visible
03 Jul 4.4 22:26:33 10° NNE 22:32:26 40° E 22:35:07 28° SE visible
04 Jul 5.8 00:12:49 10° NW 00:18:07 27° WSW 00:20:10 23° SW visible
04 Jul 5.9 09:28:26 10° SSE 09:33:54 29° ESE 09:39:15 10° NE visible
04 Jul 3.9 22:55:04 10° N 23:01:28 81° E 23:05:54 22° S visible
05 Jul 6.7 00:45:03 10° W 00:47:50 13° WSW 00:50:38 10° SW visible
05 Jul 4.7 09:57:01 10° S 10:03:20 59° E 10:09:30 10° NNE visible
05 Jul 5.2 21:41:04 10° NE 21:45:36 21° E 21:50:11 10° SE visible
05 Jul 4.8 23:24:31 10° NNW 23:30:44 51° W 23:36:50 11° S visible
06 Jul 6.7 08:42:51 10° SE 08:46:19 15° ESE 08:49:44 10° ENE visible
06 Jul 4.1 10:26:12 10° SSW 10:32:32 70° W 10:38:45 10° N visible
06 Jul 4.4 22:08:30 10° NNE 22:14:28 42° E 22:20:29 10° SSE visible
06 Jul 5.9 23:55:01 10° NW 00:00:13 26° WSW 00:05:28 10° SSW visible
07 Jul 5.8 09:10:26 10° SSE 09:15:58 31° ESE 09:21:25 10° NE visible
07 Jul 4.0 22:37:07 10° N 22:43:31 85° E 22:50:02 10° S visible
08 Jul 6.8 00:27:31 10° W 00:29:56 12° WSW 00:32:22 10° SW visible
08 Jul 4.5 09:39:04 10° S 09:45:22 62° E 09:51:34 10° NNE visible
08 Jul 5.2 21:22:56 10° NE 21:27:38 22° E 21:32:21 10° SE visible
08 Jul 4.9 23:06:38 10° NNW 23:12:48 49° W 23:19:02 10° S visible
09 Jul 6.6 08:24:43 10° SE 08:28:24 16° ESE 08:32:02 10° ENE visible
09 Jul 4.0 10:08:16 10° SSW 10:14:34 66° W 10:20:45 10° N visible
09 Jul 4.4 21:50:29 10° NNE 21:56:30 44° E 22:02:35 10° SSE visible
09 Jul 6.1 23:37:13 10° NW 23:42:18 24° WSW 23:47:25 10° SSW visible
